TimePDT,TemperatureF,Dew PointF,Humidity,Sea Level PressureIn,VisibilityMPH,Wind Direction,Wind SpeedMPH,Gust SpeedMPH,PrecipitationIn,Events,Conditions,WindDirDegrees,DateUTC
12:53 AM,57.0,32.0,39,30.02,10.0,West,5.8,-,N/A,,Clear,280,2013-03-13 07:53:00
1:53 AM,55.0,34.0,45,30.03,10.0,West,6.9,-,N/A,,Clear,270,2013-03-13 08:53:00
2:53 AM,57.0,30.0,36,30.02,10.0,WNW,5.8,-,N/A,,Clear,290,2013-03-13 09:53:00
3:53 AM,55.0,30.9,40,30.01,10.0,West,6.9,-,N/A,,Clear,270,2013-03-13 10:53:00
4:53 AM,55.0,30.0,38,30.02,10.0,WSW,5.8,-,N/A,,Clear,250,2013-03-13 11:53:00
5:53 AM,54.0,30.9,41,30.04,10.0,West,5.8,-,N/A,,Clear,260,2013-03-13 12:53:00
6:53 AM,52.0,30.9,45,30.06,10.0,West,5.8,-,N/A,,Clear,270,2013-03-13 13:53:00
7:53 AM,57.0,32.0,39,30.07,10.0,West,8.1,-,N/A,,Clear,260,2013-03-13 14:53:00
8:53 AM,68.0,37.9,33,30.09,10.0,WNW,3.5,-,N/A,,Clear,300,2013-03-13 15:53:00
9:53 AM,75.0,35.1,23,30.09,10.0,Calm,Calm,-,N/A,,Clear,0,2013-03-13 16:53:00
10:53 AM,81.0,30.9,16,30.09,10.0,NNW,4.6,-,N/A,,Clear,330,2013-03-13 17:53:00
11:53 AM,84.9,30.9,14,30.08,10.0,NW,3.5,-,N/A,,Clear,310,2013-03-13 18:53:00
12:53 PM,89.1,28.0,11,30.05,10.0,Calm,Calm,-,N/A,,Clear,0,2013-03-13 19:53:00
1:53 PM,89.1,28.0,11,30.03,10.0,WNW,4.6,-,N/A,,Clear,290,2013-03-13 20:53:00
2:53 PM,91.0,28.0,10,30.01,10.0,North,4.6,-,N/A,,Clear,10,2013-03-13 21:53:00
3:53 PM,91.0,30.0,11,29.99,10.0,ESE,5.8,-,N/A,,Clear,110,2013-03-13 22:53:00
4:53 PM,90.0,27.0,10,29.97,10.0,Calm,Calm,-,N/A,,Clear,0,2013-03-13 23:53:00
5:53 PM,88.0,36.0,16,29.97,10.0,West,5.8,-,N/A,,Clear,260,2013-03-14 00:53:00
6:53 PM,82.0,41.0,23,29.97,10.0,WSW,3.5,-,N/A,,Clear,240,2013-03-14 01:53:00
7:53 PM,75.9,37.9,25,29.97,10.0,Calm,Calm,-,N/A,,Clear,0,2013-03-14 02:53:00
8:53 PM,72.0,39.0,30,29.99,10.0,Calm,Calm,-,N/A,,Clear,0,2013-03-14 03:53:00
9:53 PM,66.0,42.1,42,30.01,10.0,West,5.8,-,N/A,,Clear,260,2013-03-14 04:53:00
10:53 PM,66.9,37.9,34,30.01,10.0,Calm,Calm,-,N/A,,Clear,0,2013-03-14 05:53:00
11:53 PM,64.0,37.9,38,30.00,10.0,West,4.6,-,N/A,,Clear,270,2013-03-14 06:53:00